Location: Cheyres
(46.8153°N, 6.7877°E)
Time: 14:27:49
(UTC+00:00)

Cosmos 990 Rocket - Pass Details

Date: 27 September 2021
Orbit: 746 x 769 km, 74.0° (Epoch: 17 October)

Event Time Altitude Azimuth Distance (km) Brightness Sun altitude
Rises 19:28:30 0° 196° (SSW) 3,182 7.1 -22.3°
Reaches altitude 10° 19:30:51 10° 194° (SSW) 2,265 6.3 -22.7°
Maximum altitude 19:35:58 77° 109° (ESE) 777 3.8 -23.5°
Drops below altitude 10° 19:41:10 10° 25° (NNE) 2,296 6.5 -24.3°
Sets 19:43:34 0° 24° (NNE) 3,230 7.3 -24.6°
